Theta_e
324 324 323 322 321 319 318 317 317 317 318 320 322 323 323 324 324 323 323 324 324 324 323 321 316 314 310 306 309 311 313 315 315 316 315 312 311 311 313 312 313 314 314 313 312 311 311
325 325 325 325 325 324 324 323 323 322 322 322 323 323 323 323 323 323 323 323 324 324 323 318 314 312 307 310 313 310 310 310 313 315 316 313 313 311 312 313 314 313 313 312 313 313 313
326 325 326 326 325 325 326 326 325 324 324 324 324 323 323 323 323 322 321 322 322 321 318 315 312 312 311 310 312 311 312 313 311 315 315 316 313 312 312 313 313 313 314 312 313 314 313
323 322 323 324 325 325 326 326 325 325 325 324 323 323 322 322 321 321 319 317 317 315 311 308 309 312 307 313 310 313 316 316 315 315 314 315 314 311 312 311 312 313 312 315 313 312 311
319 320 320 321 321 323 324 324 323 323 322 321 319 318 316 315 315 314 310 309 309 308 307 308 311 313 310 311 312 314 314 316 315 314 314 313 312 310 310 313 315 312 316 314 313 311 311
317 317 318 319 319 320 319 320 319 317 315 313 311 311 311 311 311 310 311 311 307 313 315 315 315 312 312 313 313 315 313 312 312 312 312 312 308 310 309 312 310 314 315 314 313 312 312
316 315 314 314 314 313 313 312 312 313 312 311 311 310 311 312 313 313 313 307 307 306 311 314 314 311 312 314 314 315 314 315 311 312 312 311 311 312 310 311 314 314 314 314 312 311 313
314 314 312 312 312 311 309 310 310 311 312 311 311 312 310 311 311 310 309 307 310 307 308 307 307 308 310 312 313 312 313 315 312 312 310 310 311 311 311 311 312 313 313 312 312 312 312
311 312 311 311 311 309 308 309 309 309 310 310 310 310 309 310 310 309 307 308 309 310 305 306 310 310 311 311 312 312 312 311 310 310 310 309 309 310 311 310 311 310 311 312 314 313 311
310 311 311 310 309 308 308 308 308 309 309 308 308 308 308 309 308 307 309 309 310 308 305 306 304 309 309 310 310 311 312 310 308 311 309 308 308 309 309 308 308 308 309 312 313 311 313
310 309 310 310 309 308 308 308 308 308 308 308 308 308 307 307 305 308 308 309 310 305 311 308 306 308 307 307 307 310 310 311 311 310 309 310 311 310 310 310 308 310 311 311 311 311 311
309 309 309 309 309 309 308 307 306 306 307 307 307 307 307 306 305 305 308 308 306 303 306 305 310 310 309 308 309 310 311 309 309 309 308 308 308 309 309 310 311 310 311 309 308 308 311
309 309 309 308 308 308 308 307 306 306 307 306 307 307 306 305 304 306 308 303 301 303 304 306 307 305 308 312 311 310 312 312 310 311 310 308 308 307 308 309 309 310 310 312 311 312 314
306 307 308 309 308 307 307 307 306 306 306 306 307 307 305 305 304 306 306 305 305 306 304 304 304 304 306 311 311 312 311 311 310 308 307 309 310 308 308 309 309 308 309 312 315 312 310
303 304 306 307 308 308 307 307 306 305 305 305 306 306 305 304 304 305 304 305 307 304 305 303 303 303 307 309 310 312 311 310 310 307 310 309 307 306 307 308 309 309 310 309 311 308 308
300 301 302 302 303 305 308 307 306 306 305 305 305 304 302 302 303 306 308 309 307 303 302 302 303 303 306 306 309 309 310 309 309 307 307 308 307 306 305 306 306 309 308 311 308 311 310
299 299 299 299 299 301 304 308 306 306 305 305 304 300 300 302 303 307 309 306 305 303 305 302 303 304 304 304 303 305 307 307 304 302 305 306 304 306 304 305 307 306 307 307 308 308 311
298 298 298 298 298 298 299 304 307 306 305 305 302 303 302 304 299 303 306 305 303 302 302 301 301 302 303 304 304 305 308 307 306 304 304 304 304 303 303 304 305 305 305 306 309 311 309
297 297 297 297 297 298 298 300 304 306 305 303 302 302 303 304 298 300 302 302 303 303 301 301 302 301 302 302 303 304 304 305 305 306 307 306 305 306 303 303 306 305 305 305 305 305 305
296 295 295 296 296 294 294 294 298 304 304 302 302 303 301 304 298 300 301 301 302 302 302 302 301 300 301 301 301 301 303 306 306 305 310 307 306 305 306 305 306 305 305 304 304 305 304
294 294 294 295 296 296 294 294 293 298 303 302 300 302 299 304 304 303 300 302 302 302 301 301 301 300 300 300 301 301 302 303 304 307 306 305 307 306 305 304 307 305 304 304 304 303 304
294 295 294 294 294 295 295 296 294 294 301 301 299 301 302 303 302 305 304 305 303 303 302 303 302 303 303 300 300 300 304 304 305 306 305 304 304 304 304 304 306 305 303 304 306 306 306
295 294 294 293 293 295 294 295 295 294 298 300 300 300 301 301 301 304 303 304 304 304 304 304 304 304 304 304 304 302 300 302 303 306 306 307 305 306 305 304 306 307 306 306 307 307 307
295 295 295 295 295 295 295 294 295 295 295 299 300 300 300 299 301 301 302 302 303 303 304 304 304 304 304 304 304 304 303 304 305 305 306 307 307 307 307 308 311 305 303 305 305 305 305
294 295 295 295 295 295 295 294 294 294 295 296 298 300 300 297 299 300 301 302 302 302 303 304 304 303 304 305 305 306 305 304 304 305 306 306 306 306 307 308 306 305 304 303 303 305 304
294 294 294 294 294 294 294 294 293 294 295 296 295 296 298 300 298 299 300 300 301 300 302 302 302 303 304 304 305 306 307 307 306 306 305 304 305 306 306 308 305 303 304 305 305 307 304
293 293 294 294 294 293 293 294 293 294 294 296 296 295 297 299 296 300 303 301 301 302 300 299 302 304 303 304 307 306 307 305 305 305 303 306 305 307 308 308 306 303 304 306 307 305 305
293 293 293 293 294 293 293 293 294 294 294 296 295 295 296 298 299 300 301 302 303 302 302 301 302 298 301 304 306 305 306 304 304 303 304 305 306 305 306 307 307 305 304 306 305 304 307
293 293 292 292 292 293 292 293 294 294 294 295 295 294 295 296 295 296 297 300 301 302 302 301 303 301 301 301 302 304 304 302 304 304 304 301 304 306 306 305 305 305 305 305 306 306 305
Wind_Speed
17 16 16 16 15 15 14 14 14 13 13 14 14 13 14 17 18 20 21 23 23 23 24 25 26 27 17 5 9 5 8 7 14 12 8 4 6 3 4 4 5 3 2 5 4 9 4
18 18 18 18 17 17 15 16 16 15 14 15 16 16 16 17 20 22 23 24 25 23 22 22 24 22 4 8 3 8 11 13 12 10 8 4 2 3 3 3 1 3 4 7 6 4 3
16 17 19 20 20 19 18 19 18 17 17 18 20 19 20 19 19 25 26 23 22 21 20 22 21 14 3 15 8 18 18 11 11 8 4 5 3 2 4 6 2 4 6 7 3 1 5
14 16 17 19 18 18 20 19 18 18 18 19 17 14 11 11 15 18 17 18 19 21 21 21 16 6 7 14 13 14 7 2 1 5 11 11 5 2 1 4 7 4 3 4 5 6 5
12 12 13 14 14 13 15 17 12 10 9 6 4 5 6 7 11 14 16 18 19 21 20 12 5 2 10 6 5 7 6 2 1 2 1 1 3 2 4 2 4 5 3 1 8 5 2
7 6 4 6 8 9 10 11 10 9 7 4 1 1 2 4 6 10 16 23 11 5 3 3 2 3 6 5 5 11 6 6 3 1 3 4 4 2 3 2 4 3 1 3 5 5 5
14 11 6 7 7 7 8 7 8 9 7 4 2 3 5 6 9 15 19 7 6 2 2 5 3 5 10 9 14 4 2 9 1 2 4 1 2 8 9 6 2 1 3 5 6 6 4
17 15 11 10 9 8 8 10 10 10 9 8 8 8 8 6 7 13 12 3 2 1 9 12 19 14 28 9 8 10 13 2 2 5 3 1 7 8 5 4 5 4 5 7 7 6 3
18 16 14 13 12 10 9 9 9 10 10 9 9 8 9 10 11 11 5 3 13 6 4 7 5 5 6 9 5 5 9 6 6 4 6 7 4 5 6 5 4 5 5 4 8 3 2
17 17 15 14 13 12 10 9 9 8 8 8 9 8 9 9 6 6 1 9 7 5 3 7 4 6 2 5 5 5 9 5 3 9 6 7 6 9 11 6 7 7 8 9 4 2 4
19 18 17 15 14 12 10 9 8 7 6 5 3 3 3 3 5 1 7 12 1 1 4 2 1 3 1 3 5 5 3 3 3 3 4 8 1 3 3 6 7 6 5 6 3 3 1
19 18 17 16 15 14 12 11 9 8 7 5 4 3 1 4 6 5 9 6 0 5 7 6 3 4 2 2 4 5 3 2 2 3 4 5 3 3 5 3 2 3 3 4 4 3 4
17 17 18 17 17 17 15 13 11 9 8 6 5 4 3 3 3 8 8 2 4 4 4 5 4 5 2 3 3 0 1 1 2 5 3 5 5 6 7 6 3 3 4 3 2 1 6
12 14 16 17 17 17 17 16 14 11 9 7 6 5 6 7 7 8 3 4 4 4 4 4 4 5 2 1 3 3 2 2 4 3 1 3 7 3 2 16 8 8 9 5 5 4 3
11 11 11 12 14 17 16 16 15 13 11 9 8 7 6 7 5 5 3 3 5 5 2 7 5 3 4 4 2 2 3 4 6 9 7 3 5 3 3 3 8 4 5 8 2 2 2
12 11 11 10 9 10 17 18 16 16 13 13 10 2 5 6 6 0 1 8 5 3 4 5 1 2 2 5 6 7 4 3 5 7 4 4 5 3 5 1 1 4 5 3 0 4 4
13 13 12 11 10 9 9 16 19 18 16 15 7 1 2 6 7 0 6 5 3 5 2 2 3 3 3 5 5 5 6 5 5 8 3 2 4 7 3 2 0 3 0 4 3 2 2
18 15 13 12 12 10 9 9 18 20 19 20 5 2 1 18 2 2 5 2 5 4 4 3 3 7 5 4 6 4 6 7 7 2 6 6 2 3 6 4 3 1 2 3 3 4 2
13 13 13 12 12 11 10 9 10 16 27 12 4 0 5 6 3 2 3 4 3 1 2 5 3 4 2 3 5 7 5 5 7 5 4 6 4 4 7 3 4 4 2 4 4 2 3
15 13 13 12 11 11 10 9 9 13 20 10 3 3 2 2 2 4 5 5 5 3 6 7 8 4 3 3 3 6 4 4 6 8 15 11 3 7 7 6 1 5 2 3 4 2 3
13 13 12 12 12 11 9 8 8 9 19 7 1 2 3 4 5 5 6 3 3 4 6 7 4 7 8 5 6 7 4 4 4 6 2 5 10 9 15 15 5 6 7 8 7 6 7
16 15 14 12 11 10 9 8 5 9 11 4 4 2 2 2 3 10 10 5 9 6 5 4 9 5 3 8 12 13 4 2 3 5 2 1 5 3 7 9 9 12 7 7 11 15 13
17 17 14 12 11 9 9 10 9 8 10 3 4 2 2 2 3 3 4 6 6 4 8 12 7 8 8 7 4 7 8 6 6 5 3 2 3 3 14 6 7 9 7 12 6 4 7
18 15 14 13 12 10 9 10 11 10 13 3 4 4 2 3 5 6 5 8 12 14 17 4 3 4 4 2 5 4 5 6 7 7 6 6 4 3 5 4 11 5 3 5 6 7 11
20 18 13 12 12 12 12 12 12 13 12 13 6 3 3 2 5 6 9 8 8 10 12 13 13 11 4 4 1 2 4 4 6 7 8 10 8 6 6 10 13 8 9 4 6 7 10
20 18 15 14 14 14 15 16 16 15 15 14 15 14 1 1 5 7 6 8 8 6 7 5 6 8 5 2 2 4 4 2 3 2 2 7 2 5 3 4 7 3 3 2 3 9 6
22 20 16 15 16 16 16 16 19 19 17 16 6 15 4 4 5 3 4 4 5 1 3 2 2 2 3 3 3 5 4 4 5 5 3 2 1 9 10 6 5 6 6 4 4 7 3
23 21 19 17 17 16 16 17 19 21 20 19 9 14 12 3 4 6 7 6 2 3 2 2 3 2 2 4 2 1 2 4 3 4 3 4 4 4 3 4 6 5 2 6 4 3 4
26 23 22 18 19 19 18 19 20 21 20 19 8 12 13 6 4 14 18 18 15 11 3 4 4 4 4 1 2 1 3 2 4 3 2 3 5 2 5 3 4 4 7 8 2 5 8
Wind_Direction
243 246 247 247 249 253 257 263 266 269 273 281 285 289 300 309 312 314 315 316 316 317 321 325 329 338 353 357 250 279 315 306 341 341 21 34 21 348 340 318 332 179 283 300 271 295 254
245 248 251 253 253 255 256 263 265 268 272 276 280 288 298 300 302 304 305 309 311 310 315 315 324 334 36 306 254 286 298 309 320 332 338 18 328 289 275 296 326 309 267 271 276 248 230
235 243 246 252 252 252 260 260 262 266 272 277 286 294 292 294 294 302 305 304 304 306 308 306 315 330 117 250 284 301 296 281 277 276 304 305 316 14 345 315 329 299 310 324 263 8 245
235 244 248 252 248 248 253 256 260 263 264 274 276 281 284 296 301 307 310 311 305 299 295 298 302 305 246 275 294 302 320 342 234 256 255 278 275 271 191 313 348 357 46 357 311 7 6
241 245 252 254 249 243 247 248 247 231 228 222 257 290 308 322 325 323 320 317 301 291 293 294 288 235 267 295 287 329 304 298 326 146 206 175 74 60 7 63 353 3 255 295 329 17 17
218 202 210 216 210 224 228 224 208 182 180 172 140 319 347 359 1 332 331 336 319 315 45 80 94 317 284 327 323 320 329 315 277 67 52 88 59 55 23 83 239 229 246 285 254 284 343
192 188 186 180 178 176 173 175 175 183 182 194 241 308 307 303 319 317 332 344 8 326 18 220 213 239 280 278 294 259 322 341 288 64 168 96 135 218 213 207 204 316 238 256 272 256 243
220 234 234 227 218 209 196 191 204 215 217 235 257 260 279 290 310 314 354 7 124 230 299 245 250 246 257 289 290 275 265 218 188 208 132 15 232 231 207 204 236 235 263 269 280 256 200
216 217 216 209 210 205 200 201 206 218 231 241 256 279 299 302 311 324 347 351 313 292 263 278 220 239 242 171 234 281 177 184 181 212 201 197 218 119 173 202 224 231 217 239 240 296 292
216 218 213 209 204 197 197 194 196 211 226 244 262 277 287 309 308 321 289 340 328 157 311 283 271 279 184 164 248 226 209 167 211 216 207 246 240 237 246 229 187 249 211 229 209 145 239
218 213 208 214 207 203 202 196 204 209 223 230 244 274 306 264 300 301 322 341 54 52 308 276 283 180 85 170 311 21 180 71 193 190 135 244 225 204 198 226 179 251 189 187 172 195 21
216 216 213 212 216 212 210 210 210 212 213 218 222 222 268 295 280 298 324 336 26 51 251 329 352 355 28 331 316 321 88 77 144 213 285 269 307 213 216 273 193 95 66 48 56 103 260
213 214 213 216 212 212 214 214 212 211 205 206 201 212 228 285 297 318 321 49 46 166 344 344 350 353 325 292 311 268 303 288 178 350 324 323 248 231 191 253 322 145 92 307 305 169 244
198 203 212 215 218 216 214 212 208 208 202 197 189 206 239 254 292 313 335 57 200 180 273 297 327 324 302 277 272 326 309 269 214 157 296 272 321 183 208 214 205 203 165 186 216 208 271
203 194 194 204 215 219 214 207 210 204 190 186 186 204 257 251 264 294 84 190 216 200 293 336 341 12 327 358 205 344 239 234 229 176 185 215 263 302 213 238 175 210 182 216 221 74 39
203 205 203 200 198 207 214 207 203 198 190 189 152 196 260 237 223 352 182 234 213 225 38 356 180 300 289 349 4 20 317 326 304 207 193 248 289 248 280 185 20 184 163 119 36 192 227
216 216 217 212 205 203 204 203 196 191 191 183 146 85 282 181 156 232 219 226 316 298 5 319 330 315 320 308 235 250 226 312 10 340 214 225 165 272 344 343 348 7 74 56 132 88 258
208 208 216 215 210 202 198 191 202 192 187 174 134 198 105 148 88 213 235 252 341 332 330 271 257 227 244 271 288 260 233 189 30 21 358 327 172 283 245 318 289 50 39 100 143 253 166
195 195 204 205 201 196 192 177 174 192 187 148 126 356 171 171 161 222 219 285 280 193 329 355 296 38 338 254 251 226 255 240 142 115 39 332 357 342 331 340 19 54 50 108 100 76 217
214 230 222 210 200 202 197 183 169 176 189 159 133 164 312 197 134 174 210 253 239 230 233 222 253 321 308 284 232 272 287 266 258 173 170 170 198 274 272 265 211 269 198 150 125 157 239
206 209 209 210 210 210 201 188 176 171 192 163 69 188 207 183 211 202 172 237 215 234 220 176 267 223 240 277 290 280 280 308 335 26 329 167 241 243 269 274 229 235 219 192 200 211 224
203 206 208 209 208 208 199 191 180 172 175 158 137 182 183 143 141 203 210 200 230 246 222 238 218 245 272 245 246 262 297 336 280 316 129 197 214 217 279 285 243 259 238 216 226 239 244
200 206 211 214 213 212 204 200 194 185 178 146 159 174 119 203 175 190 203 235 238 217 252 234 246 269 271 282 279 257 235 229 237 226 202 223 240 218 266 274 288 267 197 227 219 197 223
199 205 208 214 216 218 218 212 207 205 202 160 145 136 125 253 218 214 227 216 231 234 248 274 253 227 239 290 318 330 313 267 230 225 195 216 204 201 277 309 249 247 198 225 239 243 246
205 199 209 214 214 223 230 232 222 221 219 223 210 151 194 238 206 228 241 255 271 259 262 259 256 250 88 42 248 313 307 244 225 228 214 211 243 266 255 244 274 286 270 235 194 268 252
206 213 211 218 221 227 234 236 235 227 223 226 237 236 247 251 233 222 230 236 248 256 279 225 250 169 113 206 179 206 250 266 302 273 81 231 178 215 221 248 261 192 154 114 132 293 295
215 213 214 220 224 230 236 240 233 231 228 217 226 224 255 271 227 250 218 216 202 240 263 311 208 99 107 176 216 221 223 216 230 226 202 117 122 227 237 253 281 245 227 125 209 254 324
212 213 216 224 227 235 239 237 231 230 230 216 222 222 202 242 296 259 220 212 248 202 215 294 359 339 146 183 204 170 222 241 251 229 218 215 192 205 218 229 265 351 2 187 214 271 252
209 212 220 225 229 237 238 235 233 230 226 212 217 227 226 225 260 286 282 275 262 238 187 232 213 181 220 188 223 181 213 219 223 255 224 249 196 199 201 236 304 270 263 282 225 265 282